[[{"header":{"parameterUnit":"m.s-1","parameterCategory":1,"la1":30.2991,"la2":30.254,"lo1":-89.0895,"lo2":-89.0444,"dy":0.0017,"dx":0.0017,"nx":28,"ny":28,"refTime":"2026-03-04T09:00:00:Z","depth":0,"parameterNumber":2,"parameterNumberName":"U-component_of_WINDS"},"data":[0,0,0,0,0,0,0,0,0,0,0,0,0,0,0,0,0,0,0,0,0,0,0,0,0,0,0,0,0,0,0,0,0,0,0,0,0,0,0,0,0,0,0,0,0,0,0,0,0,0,0,0,0,0,0,0,0,0,-3.2883,-3.2883,0,-3.2926,-3.2926,-3.2927,-3.2868,-3.2866,-3.2864,-3.2862,-3.291,-3.2913,-3.2916,0,0,0,0,0,0,0,0,0,0,0,0,0,-3.2755,-3.2757,-3.2883,-3.2883,-3.2884,-3.2926,-3.2926,-3.2927,-3.2869,-3.2866,-3.2863,-3.2861,-3.2909,-3.2913,-3.2917,0,0,0,0,0,0,0,0,0,0,0,0,0,-3.2805,-3.2758,-3.2883,-3.286,-3.2858,-3.2926,-3.2926,-3.2927,-3.2869,-3.2866,-3.2863,-3.286,-3.2908,-3.2912,-3.2917,-3.3011,0,0,-3.2932,-3.2934,0,0,0,0,0,0,0,0,-3.2803,-3.281,-3.2862,-3.2861,-3.286,-3.2888,-3.2899,-3.2955,-3.287,-3.2865,-3.2862,-3.2858,-3.2906,-3.291,-3.2926,-3.3013,-3.3015,-3.2933,-3.2935,-3.2938,-3.2939,0,0,0,0,0,0,0,-3.2799,-3.2808,-3.29,-3.2863,-3.2862,-3.2849,-3.2852,-3.2909,-3.2903,-3.2865,-3.2861,-3.2867,-3.2904,-3.2921,-3.2926,-3.3016,-3.2932,-3.2937,-3.294,-3.2942,-3.3184,-3.3187,0,0,0,0,0,0,-3.2798,-3.2805,-3.2898,-3.2901,-3.2823,-3.2854,-3.2858,-3.2882,-3.2902,-3.2902,-3.2869,-3.2864,-3.2914,-3.2921,-3.2928,-3.3039,-3.2938,-3.2942,-3.2945,-3.3181,-3.3185,-3.3189,0,0,0,0,0,0,-3.2795,-3.2807,-3.2897,-3.2852,-3.2863,-3.2859,-3.2887,-3.2885,-3.2901,-3.2905,-3.2904,-3.2887,-3.2912,-3.2921,-3.2991,-3.304,-3.2944,-3.2949,-3.3176,-3.3182,-3.3187,-3.3262,0,0,0,0,0,0,-3.2792,-3.2806,-3.284,-3.2853,-3.2865,-3.2957,-3.289,-3.2888,-3.291,-3.2903,-3.2922,-3.2922,-3.291,-3.2984,-3.2996,-3.3045,-3.2953,-3.3172,-3.3179,-3.3185,-3.3255,-3.3269,-3.3281,0,0,0,0,0,-3.2787,-3.286,-3.2842,-3.2854,-3.2908,-3.296,-3.2967,-3.2951,-3.2914,-3.2949,-3.2952,-3.2921,-3.3033,-3.2991,-3.3004,-3.3056,-3.3169,-3.3177,-3.3185,-3.3249,-3.3266,-3.3281,0,0,0,0,0,0,-3.2853,-3.2861,-3.2841,-3.292,-3.294,-3.295,-3.2994,-3.297,-3.3002,-3.2994,-3.2975,-3.2979,-3.3054,-3.3062,-3.3015,-3.3148,-3.3095,-3.3106,-3.314,-3.3156,-3.3169,-3.3165,-3.2957,0,0,0,0,0,-3.2877,-3.2917,-3.2923,-3.2992,-3.3003,-3.2997,-3.3019,-3.3006,-3.3026,-3.3034,-3.3042,-3.3064,-3.3104,-3.3131,-3.3168,-3.3257,-3.3261,-3.3299,-3.3312,-3.3323,-3.3332,-3.3381,-3.3398,-3.3215,-3.3215,-3.3214,0,0,-3.2926,-3.2935,-3.2962,-3.3006,-3.3019,-3.3063,-3.3004,-3.3053,-3.3086,-3.3042,-3.3108,-3.3115,-3.3138,-3.3218,-3.3254,-3.3227,-3.3384,-3.3333,-3.3341,-3.3345,-3.3391,-3.3408,-3.3423,-3.322,-3.3219,-3.3218,0,0,-3.3037,-3.3049,-3.3108,-3.3123,-3.3144,-3.314,-3.3155,-3.317,-3.3172,-3.3238,-3.3206,-3.3246,-3.3316,-3.3334,-3.3352,-3.3475,-3.3448,-3.3488,-3.3555,-3.3603,-3.3618,-3.363,-3.3674,-3.369,-3.3497,-3.3497,-3.3497,0,-3.3096,-3.3159,-3.3141,-3.3193,-3.3213,-3.3176,-3.3236,-3.3252,-3.3286,-3.3302,-3.3271,-3.3358,-3.3372,-3.3456,-3.3486,-3.3502,-3.3519,-3.3484,-3.3617,-3.3629,-3.3641,-3.3682,-3.3699,-3.3502,-3.3501,-3.3501,-3.35,0,-3.3231,-3.3276,-3.3321,-3.3353,-3.3379,-3.3435,-3.3427,-3.3457,-3.3442,-3.3442,-3.3511,-3.3526,-3.3565,-3.3585,-3.3571,-3.3668,-3.3651,-3.3619,-3.3565,-3.3663,-3.3702,-3.3718,-3.3508,-3.3507,-3.3505,-3.3504,0,0,-3.3382,-3.3405,-3.3422,-3.3437,-3.3459,-3.3494,-3.355,-3.3588,-3.3614,-3.3639,-3.3686,-3.3747,-3.3718,-3.3739,-3.3728,-3.377,-3.3866,-3.3733,-3.3734,-3.3757,-3.3975,-3.3998,-3.4016,-3.385,-3.3853,-3.3855,-3.3973,0,-3.3493,-3.3587,-3.3574,-3.3665,-3.3707,-3.3673,-3.3722,-3.3742,-3.3745,-3.3782,-3.3786,-3.3829,-3.3788,-3.3801,-3.3841,-3.3846,-3.391,-3.3838,-3.3894,-3.3896,-3.3887,-3.4036,-3.406,-3.417,-3.3988,-3.399,-3.3992,0,-3.3634,-3.3664,-3.3759,-3.3777,-3.3794,-3.3837,-3.3872,-3.3909,-3.3932,-3.3931,-3.3956,-3.3938,-3.3995,-3.3942,-3.4022,-3.3973,-3.3996,-3.4002,-3.4006,-3.401,-3.3949,-3.4043,-3.4205,-3.4221,-3.4016,-3.4014,-3.4012,0,-3.3735,-3.3799,-3.3864,-3.3878,-3.39,-3.3932,-3.3943,-3.3963,-3.3988,-3.4019,-3.4035,-3.4074,-3.4095,-3.4126,-3.4119,-3.4081,-3.4202,-3.4147,-3.4203,-3.4203,-3.4228,-3.4226,-3.4395,-3.4245,-3.4245,-3.4245,-3.4245,0,-3.3859,-3.3919,-3.391,-3.395,-3.4016,-3.4002,-3.4069,-3.4076,-3.4095,-3.4137,-3.4112,-3.4152,-3.4142,-3.4183,-3.4179,-3.4246,-3.4256,-3.4257,-3.4255,-3.4259,-3.4259,-3.4272,-3.4264,-3.4249,-3.4248,-3.4247,-3.4247,0,-3.3981,-3.3977,-3.4046,-3.4062,-3.4068,-3.4116,-3.4131,-3.417,-3.4171,-3.4225,-3.4237,-3.424,-3.4287,-3.4284,-3.4337,-3.4335,-3.4418,-3.4407,-3.4409,-3.4406,-3.4462,-3.4457,-3.4644,-3.4668,-3.4504,-3.4506,-3.4507,0,-3.406,-3.4105,-3.4126,-3.4152,-3.4165,-3.4207,-3.4232,-3.4222,-3.4249,-3.4281,-3.4316,-3.4361,-3.4395,-3.4473,-3.448,-3.4522,-3.4512,-3.4575,-3.4518,-3.452,-3.4512,-3.4509,-3.4513,-3.4585,-3.4587,-3.4589,-3.459,0,-3.42,-3.4197,-3.4233,-3.427,-3.43,-3.4329,-3.4355,-3.4378,-3.4371,-3.4404,-3.4451,-3.4478,-3.4533,-3.4578,-3.4618,-3.4631,-3.461,-3.4608,-3.4623,-3.4626,-3.4625,-3.4626,-3.4438,-3.4603,-3.4602,-3.4601,-3.46,-3.46,-3.4302,-3.4341,-3.4362,-3.4404,-3.4423,-3.4449,-3.4486,-3.4493,-3.4532,-3.4574,-3.4567,-3.462,-3.4645,-3.4696,-3.4714,-3.4757,-3.4734,-3.4756,-3.4761,-3.4767,-3.4773,-3.462,-3.4764,-3.4764,-3.4763,-3.4763,-3.4763,0,-3.444,-3.4453,-3.4492,-3.4529,-3.4563,-3.454,-3.4569,-3.4599,-3.4646,-3.467,-3.4706,-3.4761,-3.4806,-3.4818,-3.4861,-3.4893,-3.4885,-3.4905,-3.4902,-3.4905,-3.479,-3.4773,-3.4911,-3.4911,-3.4911,-3.4911,-3.4911,-3.4911,-3.4516,-3.458,-3.458,-3.4655,-3.4668,-3.4719,-3.4737,-3.4762,-3.4781,-3.4844,-3.488,-3.4888,-3.4908,-3.4953,-3.4994,-3.4996,-3.5013,-3.5037,-3.5036,-3.4928,-3.4913,-3.4899,-3.4882,-3.5041,-3.5041,-3.5147,-3.5148,-3.5149]},{"header":{"parameterUnit":"m.s-1","parameterCategory":1,"la1":30.2991,"la2":30.254,"lo1":-89.0895,"lo2":-89.0444,"dy":0.0017,"dx":0.0017,"nx":28,"ny":28,"refTime":"2026-03-04T09:00:00:Z","depth":0,"parameterNumber":3,"parameterNumberName":"V-component_of_WINDS"},"data":[0,0,0,0,0,0,0,0,0,0,0,0,0,0,0,0,0,0,0,0,0,0,0,0,0,0,0,0,0,0,0,0,0,0,0,0,0,0,0,0,0,0,0,0,0,0,0,0,0,0,0,0,0,0,0,0,0,0,0.2584,0.2585,0,0.2648,0.2649,0.265,0.2709,0.271,0.2711,0.2712,0.2777,0.2778,0.2779,0,0,0,0,0,0,0,0,0,0,0,0,0,0.2515,0.2516,0.2584,0.2585,0.2586,0.2648,0.2649,0.265,0.2709,0.271,0.2711,0.2712,0.2777,0.2778,0.2779,0,0,0,0,0,0,0,0,0,0,0,0,0,0.2558,0.2516,0.2584,0.2623,0.2627,0.2648,0.2649,0.265,0.2709,0.271,0.2711,0.2712,0.2776,0.2778,0.2779,0.2767,0,0,0.2784,0.2785,0,0,0,0,0,0,0,0,0.2556,0.2561,0.2616,0.262,0.2625,0.2672,0.2649,0.2689,0.2709,0.2678,0.2712,0.2713,0.2741,0.2746,0.2755,0.277,0.2773,0.2784,0.2785,0.2786,0.2786,0,0,0,0,0,0,0,0.2553,0.2558,0.2609,0.2617,0.2622,0.2638,0.2645,0.2656,0.2702,0.2681,0.2685,0.2692,0.2744,0.2753,0.2757,0.2774,0.2784,0.2786,0.2787,0.2787,0.2784,0.2783,0,0,0,0,0,0,0.2544,0.2555,0.2607,0.2611,0.2592,0.2638,0.2646,0.2656,0.2702,0.2711,0.2691,0.2694,0.275,0.2755,0.276,0.275,0.2786,0.2787,0.2788,0.2785,0.2784,0.2783,0,0,0,0,0,0,0.2542,0.2548,0.2605,0.2585,0.2593,0.2638,0.2648,0.2656,0.2666,0.271,0.2719,0.2692,0.2751,0.2757,0.2765,0.2753,0.2788,0.2789,0.2786,0.2785,0.2783,0.2728,0,0,0,0,0,0,0.254,0.2547,0.2542,0.2584,0.2594,0.2608,0.2647,0.2657,0.2669,0.2674,0.2714,0.2722,0.2753,0.2762,0.2767,0.2755,0.2791,0.2787,0.2785,0.2784,0.2731,0.2725,0.2719,0,0,0,0,0,0.2537,0.2523,0.2541,0.2547,0.2589,0.2607,0.2613,0.2649,0.2668,0.2664,0.2692,0.272,0.2753,0.2763,0.2768,0.2757,0.2788,0.2786,0.2784,0.2734,0.2726,0.272,0,0,0,0,0,0,0.2477,0.2529,0.255,0.2549,0.2574,0.2618,0.2613,0.264,0.2659,0.2663,0.2707,0.2716,0.2719,0.2739,0.2748,0.2749,0.2775,0.2774,0.2735,0.2728,0.2722,0.2717,0.2792,0,0,0,0,0,0.2464,0.2475,0.252,0.2515,0.2526,0.2568,0.2577,0.2603,0.263,0.2641,0.267,0.2695,0.2711,0.2721,0.2738,0.2735,0.2745,0.273,0.2724,0.2719,0.2717,0.2719,0.2713,0.2775,0.2775,0.2775,0,0,0.2437,0.2467,0.2471,0.2504,0.2526,0.2537,0.2576,0.2585,0.2594,0.2642,0.2651,0.2674,0.2705,0.2707,0.271,0.2724,0.2703,0.2716,0.2712,0.2713,0.2716,0.271,0.2705,0.2773,0.2774,0.2774,0,0,0.2393,0.2416,0.2416,0.2437,0.247,0.2498,0.2498,0.2539,0.2556,0.2566,0.2603,0.2615,0.2641,0.2663,0.2677,0.2644,0.2671,0.2648,0.2617,0.2618,0.2613,0.2609,0.2598,0.2594,0.2646,0.2646,0.2646,0,0.2355,0.2372,0.2412,0.242,0.2434,0.2479,0.2479,0.2499,0.2535,0.2544,0.256,0.2596,0.262,0.2629,0.2621,0.2631,0.2633,0.2643,0.2611,0.2607,0.2604,0.2594,0.259,0.2643,0.2644,0.2644,0.2644,0,0.2324,0.2336,0.2332,0.2367,0.2381,0.2385,0.2426,0.2435,0.2461,0.2487,0.2498,0.2529,0.2554,0.2559,0.2583,0.2572,0.258,0.2602,0.263,0.2594,0.2586,0.2582,0.2639,0.264,0.2641,0.2642,0,0,0.2243,0.2302,0.23,0.2317,0.2358,0.2368,0.2375,0.24,0.2408,0.2433,0.244,0.2463,0.2485,0.2501,0.2529,0.2529,0.2503,0.2553,0.2554,0.2543,0.2494,0.2477,0.2471,0.2522,0.2521,0.2521,0.2492,0,0.2206,0.222,0.2258,0.2261,0.2273,0.2317,0.2324,0.235,0.2376,0.239,0.2419,0.2435,0.2462,0.2472,0.2475,0.2505,0.2494,0.2508,0.2529,0.253,0.252,0.2467,0.2448,0.2419,0.2488,0.2488,0.2488,0,0.2164,0.2187,0.2191,0.2234,0.2241,0.2245,0.2273,0.2286,0.2317,0.2336,0.2355,0.2387,0.2397,0.2423,0.2439,0.2448,0.2459,0.2476,0.2476,0.2479,0.2506,0.2469,0.2411,0.2406,0.2483,0.2483,0.2483,0,0.2105,0.2137,0.2144,0.2158,0.2207,0.221,0.2231,0.2263,0.2277,0.2301,0.2311,0.2335,0.2349,0.2368,0.2406,0.242,0.2418,0.2446,0.2435,0.2434,0.2431,0.2431,0.2374,0.2438,0.2438,0.2438,0.2439,0,0.206,0.2061,0.2119,0.2123,0.2127,0.217,0.2172,0.2197,0.2227,0.2237,0.2278,0.2287,0.2336,0.2352,0.2381,0.2391,0.2397,0.2413,0.242,0.2409,0.2407,0.2417,0.242,0.2437,0.2438,0.2438,0.2438,0,0.1994,0.2032,0.2044,0.209,0.2102,0.2103,0.2143,0.215,0.2179,0.2192,0.2198,0.2243,0.2264,0.2304,0.2335,0.2355,0.2358,0.2372,0.2347,0.2352,0.2338,0.2339,0.2286,0.2282,0.2348,0.2347,0.2347,0,0.1962,0.1964,0.2012,0.2022,0.2042,0.2058,0.2072,0.2116,0.2129,0.2167,0.2169,0.2193,0.2215,0.2246,0.2282,0.2307,0.2321,0.2301,0.2325,0.2314,0.2322,0.2321,0.2322,0.2295,0.2294,0.2294,0.2293,0,0.1902,0.1922,0.1941,0.1968,0.1984,0.2007,0.2032,0.2038,0.2088,0.2102,0.2124,0.214,0.2173,0.2197,0.2227,0.225,0.228,0.2285,0.2284,0.2272,0.2258,0.2266,0.2333,0.2286,0.2287,0.2287,0.2288,0.2288,0.1853,0.1858,0.1892,0.1913,0.1937,0.196,0.1969,0.2,0.2019,0.2049,0.2075,0.2095,0.2129,0.2173,0.2194,0.2211,0.2225,0.2223,0.2222,0.2221,0.2217,0.2256,0.2216,0.2217,0.2217,0.2217,0.2217,0,0.1796,0.1821,0.184,0.1874,0.1891,0.1919,0.1948,0.1961,0.1978,0.2007,0.2028,0.2054,0.2078,0.2117,0.2144,0.215,0.2165,0.2156,0.2156,0.2161,0.2202,0.2201,0.2144,0.2144,0.2144,0.2144,0.2144,0.2144,0.1768,0.1778,0.1802,0.1825,0.185,0.187,0.1885,0.1907,0.1931,0.1959,0.1979,0.2004,0.2038,0.2068,0.2092,0.2103,0.2111,0.2098,0.2113,0.2151,0.2158,0.2164,0.2163,0.2099,0.2099,0.2071,0.2071,0.207]}]]